Regional Weather Roundup
Issued by NWS

Home | Current Version | Previous Version | Graphics & Text | Print | Product List | Glossary On
Versions: 1 2 3 4 5 6 7 8 9 10 11 12 13 14 15 16 17 18 19 20 21 22 23 24 25 26 27 28 29 30 31 32 33 34 35 36 37 38 39 40 41 42 43 44 45 46 47 48 49 50
000
ASUS45 KSLC 020610
RWRUT

UTAH REGIONAL WEATHER ROUNDUP
NATIONAL WEATHER SERVICE SALT LAKE CITY UT
1100 PM MST SUN MAR 01 2015

UTZ001>011-023>025-020700-

NORTHERN UTAH

CITY           SKY/WX    TMP DP  RH WIND       PRES   REMARKS
BRIGHAM CITY   PTCLDY    34  24  66 CALM      30.01R
HILL AFB       CLOUDY    37  25  62 E10       29.98F WCI  30
LOGAN          PTCLDY    35  21  56 S8        29.99F WCI  29
OGDEN          MOCLDY    36  27  69 S5        29.98F WCI  32
PROVO AIRPORT  MOCLDY    39  30  70 CALM      29.99F
SALT LAKE CITY CLOUDY    40  30  67 CALM      29.98F
VERNAL         CLOUDY    35  26  69 CALM      30.05F
WENDOVER       CLEAR     32  18  55 CALM      29.97F
HEBER CITY     CLOUDY    32  28  86 CALM      29.97F
WEST JORDAN    CLOUDY    37  32  81 CALM      29.99F

$$

UTZ012>022-026-027-020700-

SOUTHERN/CENTRAL UTAH

CITY           SKY/WX    TMP DP  RH WIND       PRES   REMARKS
BLANDING       CLOUDY    34  34 100 N5        30.12S WCI  30
BRYCE CANYON   SNOW      28  26  92 E5        29.97F VSB 1/2 WCI  23
CEDAR CITY     CLOUDY    32  31  96 CALM      29.93F FOG
DELTA          CLOUDY    36  34  93 NE3       29.98F
HANKSVILLE     CLOUDY    37  36  93 CALM      30.05S
MILFORD        FLURRIES  35  32  88 N3        29.96F
MOAB/CYNLANDS  LGT RAIN  38  36  92 CALM      30.02F
PRICE          LGT SNOW  33  30  88 NE3       30.01F FOG
ST GEORGE      CLOUDY    43  37  81 SE3       29.99F
KANAB          CLOUDY    34  34 100 NE6       30.01F WCI  29

$$

REGIONAL REPORTS     COLORADO/ARIZONA

CITY           SKY/WX    TMP DP  RH WIND       PRES   REMARKS
CRAIG, CO      CLOUDY    32  25  75 E8        30.04F WCI  25
GRAND JUNCTION LGT RAIN  37  34  89 E8        30.03F WCI  31
RIFLE          LGT RAIN  37  31  78 N5        30.05S WCI  33
MONTROSE       CLOUDY    33  32  96 CALM      30.05F FOG
CORTEZ         MOCLDY    36  34  92 CALM      30.06F
PAGE, AZ       CLOUDY    36  33  89 SW5       30.01S WCI  32
GRAND CANYON   FLURRIES  37  35  92 SE7       29.97F WCI  32
KINGMAN        LGT RAIN  41  39  93 NE6       29.93F
FLAGSTAFF      LGT RAIN  39  36  89 S16G22    30.00F WCI  30

$$

REGIONAL REPORTS    NEVADA/IDAHO/WYOMING

CITY           SKY/WX    TMP DP  RH WIND       PRES   REMARKS
LAS VEGAS, NV  LGT RAIN  47  42  83 VRB3      29.92F
ELY            MOCLDY    29  26  89 SE6       29.94F WCI  23
ELKO           CLEAR     29  21  72 E7        29.93F WCI  22
POCATELLO, ID  CLEAR     20   9  62 W3        30.01S
BURLEY         CLEAR     24   9  52 CALM      29.98F
EVANSTON, WY   CLOUDY    25  19  78 E3        29.99F
ROCK SPRINGS   MOCLDY    23  16  74 E5        30.01F WCI  17

$$


USA.gov is the U.S. government's official web portal to all federal, state and local government web resources and services.